Back to catalog

STARLINK-4548

AliveCommunicationsVLEO
NORAD 53431·PAYLOAD·🇺🇸 United States

Launched Aug 10, 2022 from Cape Canaveral Space Force Station

Loading…

Next Passes (next 24 hours)

TLE

FreshSource: CelesTrak SupGP

Epoch: Sep 14, 2026, 13:35 UTC

1 53431C 22097AV  26257.56645833  .00035597  00000+0  10187-2 0  2572
2 53431  53.1580 321.4901 0001197  84.3191 108.2458 15.35375127    12

Track STARLINK-4548 in real time with AllMySat

Download on the App Store